Location: Stockholm
(59.3330°N, 18.0500°E)
Time: 08:07:56
(UTC+01:00)

FENGYUN 1C DEB - Pass Details

Date: 08 December 2023
Orbit: 850 x 2580 km, 98.6° (Epoch: 26 November)

Event Time Altitude Azimuth Distance (km) Brightness Sun altitude
Exits shadow 03:51:49 16° 326° (NW) 3,741 ? -33.0°
Drops below altitude 10° 03:54:50 10° 340° (NNW) 4,431 ? -32.6°
Sets 03:59:48 0° 355° (N) 5,727 ? -32.0°
